Flag for Germany Weather past 2 weeks in Hamburg, Hamburg, Germany

Now
46 °F

Clear.


Feels Like: 43 °F
Forecast: 53 / 65 °F
Wind: 7 mph from Southwest

Location: Hamburg-Fuhlsbuettel

Current Time: Aug 21, 2014 at 4:41:30 AM

Latest Report: Aug 21, 2014 at 4:20 AM


Visibility: 10 mi

Pressure: 29.95 "Hg

Humidity: 100%

Dew point: 46 °F

Location of HamburgLocation

Historic Weather in Hamburg — Graph

°F

Hamburg temperature yesterday

Maximum temperature yesterday: 59 °F (at 10:50 AM)
Minimum temperature yesterday: 48 °F (at 11:50 PM)
Average temperature yesterday: 54 °F

Past Weeks' High & Low Weather Summary

 TemperatureHumidityPressure
High79 °F (Aug 8, 3:20 PM)100% (Aug 6, 3:20 AM)30.07 "Hg (Aug 6, 3:20 AM)
Low48 °F (Aug 20, 11:50 PM)34% (Aug 6, 4:20 PM)29.47 "Hg (Aug 18, 10:20 AM)
Average62 °F76%29.79 "Hg
* Reported Aug 6 3:20 AM — Aug 21 3:20 AM, Hamburg, Weather by CustomWeather, © 2014

Note: Actual official high and low records may vary slightly from our data, if they occured in-between our weather recording intervals... More about our weather records

Advertising

Hamburg weather history for previous 24 hours

 ConditionsComfort  
Time TempWeatherWind HumidityBarometerVisibility
3:20 AM
Aug 21
48 °FClear.8 mph94%29.95 "Hg10 mi
2:50 AM48 °FClear.7 mph94%29.95 "Hg10 mi
2:20 AM48 °FClear.7 mph94%29.95 "Hg10 mi
1:50 AM48 °FClear.8 mph94%29.95 "Hg10 mi
1:20 AM50 °FClear.7 mph94%29.95 "Hg10 mi
12:50 AM50 °FClear.9 mph94%29.92 "Hg10 mi
12:20 AM48 °FClear.8 mph94%29.92 "Hg10 mi
11:50 PM
Aug 20
48 °FClear.7 mph94%29.92 "Hg10 mi
11:20 PM50 °FPassing clouds.6 mph94%29.92 "HgN/A
10:50 PM50 °FPassing clouds.7 mph94%29.92 "HgN/A
10:20 PM52 °FPassing clouds.7 mph88%29.92 "HgN/A
9:50 PM52 °FPassing clouds.7 mph88%29.92 "HgN/A
9:20 PM54 °FScattered showers. Scattered clouds.8 mph88%29.92 "HgN/A
8:50 PM55 °FSprinkles. Scattered clouds.8 mph82%29.92 "HgN/A
8:20 PM55 °FPassing clouds.8 mph82%29.92 "HgN/A
7:50 PM57 °FScattered clouds.8 mph82%29.92 "HgN/A
7:20 PM55 °FSprinkles. Scattered clouds.14 mph88%29.92 "HgN/A
6:50 PM57 °FSprinkles. Passing clouds.12 mph77%29.92 "HgN/A
6:20 PM57 °FSprinkles. Passing clouds.13 mph77%29.92 "HgN/A
5:50 PM57 °FPassing clouds.15 mph77%29.92 "HgN/A
5:20 PM59 °FPassing clouds.12 mph77%29.92 "HgN/A
4:50 PM59 °FScattered clouds.12 mph77%29.92 "HgN/A
4:20 PM57 °FPartly sunny.10 mph82%29.89 "HgN/A
3:50 PM55 °FSprinkles. Partly sunny.10 mph88%29.92 "HgN/A
3:20 PM57 °FScattered clouds.6 mph77%29.89 "HgN/A
2:50 PM54 °FThundershowers. Partly sunny.10 mph88%29.89 "Hg4 mi
2:20 PM59 °FPartly sunny.9 mph82%29.89 "HgN/A
1:50 PM55 °FSprinkles. Scattered clouds.9 mph88%29.89 "HgN/A
1:20 PM55 °FSprinkles. Broken clouds.16 mph82%29.89 "HgN/A
12:50 PM59 °FSprinkles. Scattered clouds.16 mph68%29.89 "HgN/A
12:20 PM59 °FScattered showers. Scattered clouds.17 mph72%29.86 "HgN/A
11:50 AM59 °FScattered clouds.17 mph68%29.86 "HgN/A
11:20 AM59 °FScattered clouds.14 mph72%29.86 "HgN/A
10:50 AM59 °FScattered clouds.16 mph72%29.86 "HgN/A
10:20 AM57 °FScattered clouds.16 mph77%29.83 "HgN/A
9:50 AM57 °FPassing clouds.14 mph82%29.83 "HgN/A
9:20 AM54 °FScattered clouds.15 mph88%29.83 "HgN/A
8:50 AM54 °FScattered clouds.14 mph88%29.83 "HgN/A
8:20 AM52 °FPassing clouds.14 mph94%29.83 "HgN/A
7:50 AM52 °FSprinkles. Scattered clouds.13 mph88%29.83 "HgN/A
7:20 AM50 °FPassing clouds.9 mph94%29.80 "HgN/A
6:50 AM50 °FScattered showers. Passing clouds.14 mph94%29.80 "HgN/A
6:20 AM52 °FPassing clouds.14 mph88%29.80 "HgN/A
5:50 AM52 °FPassing clouds.13 mph88%29.80 "HgN/A
5:20 AM52 °FPassing clouds.13 mph88%29.80 "HgN/A
4:50 AM52 °FPassing clouds.12 mph94%29.77 "HgN/A
4:20 AM52 °FPassing clouds.9 mph94%29.77 "HgN/A
Weather by CustomWeather, © 2014

See weather overviewHow to use our weather pages